| time (UTC) | temp F | wind direction | speed MPH | gust MPH | rain 1hr in | rain 24hr in | rain mn in | humidity % | barometer mb |
| 20260505011101 | 49 | 360 | 1.0 | 8.0 | 0.00 | 0.00 | 0.00 | 50 | 1004.8 |
| 20260505010521 | 50 | 360 | 2.0 | 10.0 | 0.00 | 0.00 | 0.00 | 49 | 1004.6 |
| 20260505010057 | 50 | 360 | 4.0 | 10.0 | 0.00 | 0.00 | 0.00 | 48 | 1004.5 |
| 20260505005601 | 50 | 360 | 2.0 | 10.0 | 0.00 | 0.00 | 0.00 | 48 | 1004.3 |
| 20260505005033 | 51 | 360 | 2.0 | 8.0 | 0.00 | 0.00 | 0.00 | 48 | 1004.2 |
| 20260505004612 | 51 | 46 | 1.0 | 4.0 | 0.00 | 0.00 | 0.00 | 47 | 1004.2 |
| 20260505004002 | 51 | 76 | 1.0 | 4.0 | 0.00 | 0.00 | 0.00 | 47 | 1004.1 |
| 20260505003527 | 52 | 154 | 2.0 | 8.0 | 0.00 | 0.00 | 0.00 | 47 | 1003.9 |
| 20260505003015 | 52 | 338 | 3.0 | 8.0 | 0.00 | 0.00 | 0.00 | 46 | 1003.9 |
| 20260505002606 | 52 | 301 | 2.0 | 14.0 | 0.00 | 0.00 | 0.00 | 45 | 1003.7 |
| 20260505002013 | 52 | 326 | 3.0 | 14.0 | 0.00 | 0.00 | 0.00 | 46 | 1003.8 |
| 20260505001549 | 52 | 323 | 3.0 | 11.0 | 0.00 | 0.00 | 0.00 | 47 | 1003.7 |
| 20260505001012 | 52 | 295 | 1.0 | 11.0 | 0.00 | 0.00 | 0.00 | 46 | 1003.6 |
| 20260505000551 | 52 | 287 | 3.0 | 11.0 | 0.00 | 0.00 | 0.00 | 46 | 1003.6 |
| 20260505000003 | 52 | 80 | 2.0 | 8.0 | 0.00 | 0.00 | 0.00 | 47 | 1003.5 |
| 20260504235521 | 52 | 212 | 3.0 | 12.0 | 0.00 | 0.00 | 0.00 | 46 | 1003.4 |
| 20260504235041 | 52 | 211 | 3.0 | 12.0 | 0.00 | 0.00 | 0.00 | 46 | 1003.4 |
| 20260504234519 | 53 | 298 | 3.0 | 14.0 | 0.00 | 0.00 | 0.00 | 45 | 1003.4 |
| 20260504234058 | 53 | 288 | 3.0 | 14.0 | 0.00 | 0.00 | 0.00 | 46 | 1003.3 |
| 20260504233509 | 53 | 298 | 2.0 | 6.0 | 0.00 | 0.00 | 0.00 | 46 | 1003.3 |
| 20260504233047 | 53 | 244 | 2.0 | 12.0 | 0.00 | 0.00 | 0.00 | 45 | 1003.3 |
| 20260504232503 | 54 | 50 | 3.0 | 10.0 | 0.00 | 0.00 | 0.00 | 45 | 1003.1 |
| 20260504232046 | 54 | 228 | 3.0 | 10.0 | 0.00 | 0.00 | 0.00 | 44 | 1003.0 |
| 20260504231627 | 54 | 263 | 3.0 | 10.0 | 0.00 | 0.00 | 0.00 | 45 | 1003.0 |
| 20260504231032 | 54 | 313 | 3.0 | 15.0 | 0.00 | 0.00 | 0.00 | 45 | 1003.0 |
| 20260504230601 | 54 | 265 | 4.0 | 15.0 | 0.00 | 0.00 | 0.00 | 45 | 1002.8 |
| 20260504230036 | 54 | 298 | 4.0 | 11.0 | 0.00 | 0.00 | 0.00 | 45 | 1002.7 |
| 20260504225558 | 54 | 27 | 2.0 | 11.0 | 0.00 | 0.00 | 0.00 | 45 | 1002.7 |
| 20260504225020 | 55 | 150 | 2.0 | 11.0 | 0.00 | 0.00 | 0.00 | 44 | 1002.7 |
| 20260504224549 | 55 | 180 | 3.0 | 10.0 | 0.00 | 0.00 | 0.00 | 43 | 1002.7 |
| 20260504224025 | 56 | 344 | 4.0 | 10.0 | 0.00 | 0.00 | 0.00 | 43 | 1002.5 |
| 20260504223603 | 56 | 339 | 3.0 | 10.0 | 0.00 | 0.00 | 0.00 | 44 | 1002.4 |
| 20260504223013 | 57 | 207 | 2.0 | 16.0 | 0.00 | 0.00 | 0.00 | 45 | 1002.3 |
| 20260504222534 | 57 | 238 | 2.0 | 16.0 | 0.00 | 0.00 | 0.00 | 45 | 1002.2 |
| 20260504222017 | 57 | 41 | 2.0 | 13.0 | 0.00 | 0.00 | 0.00 | 45 | 1002.0 |
| 20260504221623 | 57 | 17 | 6.0 | 12.0 | 0.00 | 0.00 | 0.00 | 43 | 1002.0 |
| 20260504221027 | 57 | 244 | 4.0 | 9.0 | 0.00 | 0.00 | 0.00 | 44 | 1001.8 |
| 20260504220605 | 57 | 293 | 3.0 | 9.0 | 0.00 | 0.00 | 0.00 | 45 | 1001.7 |
| 20260504220015 | 57 | 242 | 5.0 | 10.0 | 0.00 | 0.00 | 0.00 | 44 | 1001.6 |
| 20260504215539 | 57 | 65 | 2.0 | 14.0 | 0.00 | 0.00 | 0.00 | 44 | 1001.6 |
| 20260504215008 | 58 | 290 | 5.0 | 13.0 | 0.00 | 0.00 | 0.00 | 44 | 1001.6 |
| 20260504214550 | 57 | 291 | 5.0 | 11.0 | 0.00 | 0.00 | 0.00 | 44 | 1001.5 |
| 20260504214018 | 58 | 213 | 2.0 | 13.0 | 0.00 | 0.00 | 0.00 | 45 | 1001.4 |
| 20260504213554 | 58 | 290 | 3.0 | 13.0 | 0.00 | 0.00 | 0.00 | 44 | 1001.1 |
| 20260504213030 | 59 | 114 | 3.0 | 15.0 | 0.00 | 0.00 | 0.00 | 44 | 1001.2 |
| 20260504212533 | 59 | 293 | 6.0 | 15.0 | 0.00 | 0.00 | 0.00 | 42 | 1001.1 |
| 20260504212053 | 59 | 271 | 5.0 | 17.0 | 0.00 | 0.00 | 0.00 | 44 | 1001.1 |
| 20260504211502 | 60 | 321 | 7.0 | 16.0 | 0.00 | 0.00 | 0.00 | 42 | 1001.1 |
| 20260504211023 | 59 | 331 | 5.0 | 13.0 | 0.00 | 0.00 | 0.00 | 43 | 1001.0 |
| 20260504210505 | 60 | 333 | 5.0 | 13.0 | 0.00 | 0.00 | 0.00 | 42 | 1000.9 |
| 20260504210046 | 60 | 38 | 5.0 | 11.0 | 0.00 | 0.00 | 0.00 | 44 | 1001.1 |
| 20260504205607 | 59 | 242 | 3.0 | 17.0 | 0.00 | 0.00 | 0.00 | 43 | 1000.8 |
| 20260504205019 | 61 | 323 | 4.0 | 10.0 | 0.00 | 0.00 | 0.00 | 41 | 1000.8 |
| 20260504204556 | 61 | 288 | 4.0 | 11.0 | 0.00 | 0.00 | 0.00 | 44 | 1000.7 |
| 20260504204005 | 61 | 296 | 4.0 | 14.0 | 0.00 | 0.00 | 0.00 | 43 | 1000.7 |
| 20260504203525 | 60 | 320 | 4.0 | 14.0 | 0.00 | 0.00 | 0.00 | 44 | 1000.7 |
| 20260504203046 | 60 | 348 | 2.0 | 14.0 | 0.00 | 0.00 | 0.00 | 44 | 1000.6 |
| 20260504202519 | 60 | 323 | 5.0 | 11.0 | 0.00 | 0.00 | 0.00 | 44 | 1000.6 |
| 20260504202006 | 61 | 53 | 3.0 | 14.0 | 0.00 | 0.00 | 0.00 | 44 | 1000.5 |
| 20260504201534 | 61 | 323 | 4.0 | 14.0 | 0.00 | 0.00 | 0.00 | 46 | 1000.6 |
| 20260504201055 | 61 | 188 | 4.0 | 10.0 | 0.00 | 0.00 | 0.00 | 44 | 1000.5 |
| 20260504200505 | 61 | 266 | 2.0 | 15.0 | 0.00 | 0.00 | 0.00 | 44 | 1000.4 |
| 20260504200136 | 61 | 317 | 5.0 | 13.0 | 0.00 | 0.00 | 0.00 | 41 | 1000.4 |
| 20260504195600 | 62 | 338 | 4.0 | 10.0 | 0.00 | 0.00 | 0.00 | 45 | 1000.3 |
| 20260504195019 | 61 | 309 | 2.0 | 15.0 | 0.00 | 0.00 | 0.00 | 48 | 1000.3 |
| 20260504194546 | 60 | 336 | 5.0 | 14.0 | 0.00 | 0.00 | 0.00 | 44 | 1000.2 |
| 20260504194004 | 60 | 321 | 4.0 | 14.0 | 0.00 | 0.00 | 0.00 | 45 | 1000.3 |
| 20260504193532 | 60 | 304 | 4.0 | 14.0 | 0.00 | 0.00 | 0.00 | 42 | 1000.3 |
| 20260504193053 | 61 | 340 | 3.0 | 10.0 | 0.00 | 0.00 | 0.00 | 42 | 1000.1 |
| 20260504192525 | 61 | 298 | 3.0 | 12.0 | 0.00 | 0.00 | 0.00 | 44 | 1000.1 |
| 20260504192047 | 60 | 311 | 5.0 | 15.0 | 0.00 | 0.00 | 0.00 | 44 | 1000.1 |
| 20260504191624 | 60 | 329 | 5.0 | 14.0 | 0.00 | 0.00 | 0.00 | 44 | 999.8 |
| 20260504191015 | 60 | 293 | 4.0 | 14.0 | 0.00 | 0.00 | 0.00 | 45 | 999.9 |
| 20260504190559 | 60 | 304 | 8.0 | 16.0 | 0.00 | 0.00 | 0.00 | 43 | 999.8 |
| 20260504190031 | 60 | 348 | 7.0 | 16.0 | 0.00 | 0.00 | 0.00 | 43 | 999.9 |
| 20260504185505 | 60 | 293 | 7.0 | 19.0 | 0.00 | 0.00 | 0.00 | 43 | 999.8 |
| 20260504185025 | 60 | 19 | 8.0 | 19.0 | 0.00 | 0.00 | 0.00 | 43 | 999.7 |
| 20260504184609 | 60 | 333 | 3.0 | 13.0 | 0.00 | 0.00 | 0.00 | 45 | 999.6 |
| 20260504184047 | 59 | 325 | 6.0 | 13.0 | 0.00 | 0.00 | 0.00 | 43 | 999.7 |
| 20260504183607 | 59 | 325 | 6.0 | 12.0 | 0.00 | 0.00 | 0.00 | 43 | 999.8 |
| 20260504183019 | 60 | 310 | 2.0 | 10.0 | 0.00 | 0.00 | 0.00 | 44 | 999.6 |
| 20260504182538 | 60 | 299 | 2.0 | 7.0 | 0.00 | 0.00 | 0.00 | 42 | 999.5 |
| 20260504182059 | 61 | 80 | 2.0 | 13.0 | 0.00 | 0.00 | 0.00 | 39 | 999.4 |
| 20260504181515 | 60 | 336 | 5.0 | 13.0 | 0.00 | 0.00 | 0.00 | 41 | 999.4 |
| 20260504181101 | 60 | 281 | 5.0 | 13.0 | 0.00 | 0.00 | 0.00 | 41 | 999.3 |
| 20260504180533 | 61 | 344 | 4.0 | 17.0 | 0.00 | 0.00 | 0.00 | 40 | 999.1 |
| 20260504180011 | 61 | 330 | 5.0 | 17.0 | 0.00 | 0.00 | 0.00 | 39 | 999.0 |
| 20260504175538 | 61 | 316 | 5.0 | 17.0 | 0.00 | 0.00 | 0.00 | 40 | 998.8 |
| 20260504175106 | 61 | 338 | 7.0 | 17.0 | 0.00 | 0.00 | 0.00 | 40 | 998.8 |
| 20260504174532 | 61 | 164 | 2.0 | 16.0 | 0.00 | 0.00 | 0.00 | 45 | 998.7 |
| 20260504174101 | 62 | 327 | 7.0 | 16.0 | 0.00 | 0.00 | 0.00 | 42 | 998.7 |
| 20260504173517 | 62 | 340 | 3.0 | 18.0 | 0.00 | 0.00 | 0.00 | 44 | 998.8 |
| 20260504173039 | 62 | 345 | 5.0 | 18.0 | 0.00 | 0.00 | 0.00 | 43 | 998.7 |
| 20260504172515 | 62 | 5 | 5.0 | 19.0 | 0.00 | 0.00 | 0.00 | 44 | 998.7 |
| 20260504172056 | 62 | 332 | 6.0 | 16.0 | 0.00 | 0.00 | 0.00 | 44 | 998.6 |
| 20260504171542 | 62 | 346 | 5.0 | 16.0 | 0.00 | 0.00 | 0.00 | 45 | 998.5 |
| 20260504171026 | 62 | 282 | 4.0 | 12.0 | 0.00 | 0.00 | 0.00 | 44 | 998.6 |
| 20260504170556 | 62 | 310 | 3.0 | 10.0 | 0.00 | 0.00 | 0.00 | 45 | 998.4 |
| 20260504151015 | 61 | 160 | 4.0 | 10.0 | 0.00 | 0.00 | 0.00 | 47 | 998.2 |
| 20260504150539 | 61 | 236 | 2.0 | 9.0 | 0.00 | 0.00 | 0.00 | 47 | 998.1 |
| 20260504141040 | 61 | 144 | 1.0 | 9.0 | 0.00 | 0.00 | 0.00 | 45 | 997.8 |
| 20260504140532 | 61 | 11 | 2.0 | 12.0 | 0.00 | 0.00 | 0.00 | 44 | 997.7 |
| 20260504140103 | 61 | 47 | 3.0 | 12.0 | 0.00 | 0.00 | 0.00 | 42 | 997.5 |
| 20260504130558 | 60 | 346 | 4.0 | 14.0 | 0.00 | 0.00 | 0.00 | 53 | 996.8 |
| 20260504110534 | 58 | 326 | 6.0 | 14.0 | 0.00 | 0.00 | 0.00 | 48 | 995.6 |
| 20260504100503 | 57 | 293 | 3.0 | 12.0 | 0.00 | 0.00 | 0.00 | 49 | 996.2 |
| 20260504081506 | 57 | 302 | 3.0 | 13.0 | 0.00 | 0.00 | 0.00 | 49 | 997.9 |
| 20260504081044 | 57 | 298 | 3.0 | 13.0 | 0.00 | 0.00 | 0.00 | 49 | 998.1 |
| 20260504080518 | 57 | 279 | 2.0 | 9.0 | 0.00 | 0.00 | 0.00 | 49 | 998.2 |
| 20260504070202 | 56 | 259 | 3.0 | 8.0 | 0.00 | 0.00 | 0.00 | 49 | 999.2 |
| 20260504050546 | 50 | 360 | 0.0 | 2.0 | 0.00 | 0.00 | 0.00 | 68 | 1001.4 |
| 20260504050024 | 50 | 360 | 0.0 | 2.0 | 0.00 | 0.00 | 0.00 | 69 | 1001.5 |
| 20260504045603 | 49 | 360 | 0.0 | 0.0 | 0.00 | 0.00 | 0.00 | 70 | 1001.5 |
| 20260504045022 | 49 | 360 | 0.0 | 0.0 | 0.00 | 0.00 | 0.00 | 70 | 1001.6 |
| 20260504044504 | 49 | 360 | 0.0 | 0.0 | 0.00 | 0.00 | 0.00 | 72 | 1001.7 |
| 20260504044028 | 49 | 360 | 0.0 | 1.0 | 0.00 | 0.00 | 0.00 | 74 | 1001.8 |
| 20260504043508 | 49 | 360 | 0.0 | 1.0 | 0.00 | 0.00 | 0.00 | 74 | 1001.9 |
| 20260504043039 | 48 | 360 | 0.0 | 0.0 | 0.00 | 0.00 | 0.00 | 75 | 1002.0 |
| 20260504042532 | 49 | 360 | 0.0 | 0.0 | 0.00 | 0.00 | 0.00 | 76 | 1002.1 |
| 20260504042018 | 49 | 360 | 0.0 | 0.0 | 0.00 | 0.00 | 0.00 | 75 | 1002.1 |
| 20260504041505 | 49 | 360 | 0.0 | 0.0 | 0.00 | 0.00 | 0.00 | 75 | 1002.2 |
| 20260504041004 | 49 | 360 | 0.0 | 0.0 | 0.00 | 0.00 | 0.00 | 75 | 1002.3 |
| 20260504040602 | 49 | 360 | 0.0 | 0.0 | 0.00 | 0.00 | 0.00 | 74 | 1002.3 |
| 20260504040037 | 49 | 360 | 0.0 | 0.0 | 0.00 | 0.00 | 0.00 | 75 | 1002.4 |
| 20260504035512 | 49 | 360 | 0.0 | 0.0 | 0.00 | 0.00 | 0.00 | 74 | 1002.6 |
| 20260504035058 | 49 | 360 | 0.0 | 0.0 | 0.00 | 0.00 | 0.00 | 73 | 1002.7 |
| 20260504034554 | 50 | 360 | 0.0 | 0.0 | 0.00 | 0.00 | 0.00 | 73 | 1002.8 |
| 20260504034037 | 50 | 360 | 0.0 | 0.0 | 0.00 | 0.00 | 0.00 | 71 | 1002.9 |
| 20260504033502 | 50 | 360 | 0.0 | 0.0 | 0.00 | 0.00 | 0.00 | 70 | 1002.9 |
| 20260504033028 | 50 | 360 | 0.0 | 0.0 | 0.00 | 0.00 | 0.00 | 69 | 1003.0 |
| 20260504032517 | 51 | 360 | 0.0 | 0.0 | 0.00 | 0.00 | 0.00 | 71 | 1003.1 |
| 20260504032008 | 51 | 360 | 0.0 | 0.0 | 0.00 | 0.00 | 0.00 | 75 | 1003.1 |
| 20260504031559 | 51 | 360 | 0.0 | 0.0 | 0.00 | 0.00 | 0.00 | 67 | 1003.1 |
| 20260504031023 | 52 | 360 | 0.0 | 0.0 | 0.00 | 0.00 | 0.00 | 71 | 1003.2 |
| 20260504030509 | 52 | 360 | 0.0 | 0.0 | 0.00 | 0.00 | 0.00 | 74 | 1003.2 |
| 20260504030029 | 53 | 360 | 0.0 | 0.0 | 0.00 | 0.00 | 0.00 | 73 | 1003.3 |
| 20260504025549 | 53 | 360 | 0.0 | 0.0 | 0.00 | 0.00 | 0.00 | 67 | 1003.3 |
| 20260504025109 | 53 | 360 | 0.0 | 0.0 | 0.00 | 0.00 | 0.00 | 66 | 1003.4 |
| 20260504024532 | 54 | 360 | 0.0 | 0.0 | 0.00 | 0.00 | 0.00 | 64 | 1003.4 |
| 20260504024104 | 54 | 360 | 0.0 | 0.0 | 0.00 | 0.00 | 0.00 | 61 | 1003.4 |
| 20260504023537 | 55 | 360 | 0.0 | 0.0 | 0.00 | 0.00 | 0.00 | 56 | 1003.4 |
| 20260504023011 | 56 | 360 | 0.0 | 0.0 | 0.00 | 0.00 | 0.00 | 58 | 1003.4 |
| 20260504022535 | 57 | 315 | 0.0 | 0.0 | 0.00 | 0.00 | 0.00 | 65 | 1003.5 |
| 20260504022002 | 58 | 315 | 0.0 | 0.0 | 0.00 | 0.00 | 0.00 | 68 | 1003.5 |
| 20260504021525 | 58 | 315 | 0.0 | 0.0 | 0.00 | 0.00 | 0.00 | 69 | 1003.4 |
| 20260504021106 | 59 | 315 | 0.0 | 0.0 | 0.00 | 0.00 | 0.00 | 62 | 1003.5 |
| 20260504020540 | 60 | 315 | 0.0 | 0.0 | 0.00 | 0.00 | 0.00 | 58 | 1003.5 |
| 20260504020007 | 61 | 315 | 0.0 | 0.0 | 0.00 | 0.00 | 0.00 | 57 | 1003.4 |
| 20260504015535 | 61 | 315 | 0.0 | 0.0 | 0.00 | 0.00 | 0.00 | 53 | 1003.4 |
| 20260504015008 | 62 | 315 | 0.0 | 1.0 | 0.00 | 0.00 | 0.00 | 45 | 1003.5 |
| 20260504014549 | 62 | 315 | 0.0 | 2.0 | 0.00 | 0.00 | 0.00 | 41 | 1003.5 |
| 20260504014026 | 63 | 315 | 0.0 | 2.0 | 0.00 | 0.00 | 0.00 | 36 | 1003.7 |
| 20260504013557 | 64 | 315 | 0.0 | 0.0 | 0.00 | 0.00 | 0.00 | 39 | 1003.6 |
| 20260504013041 | 64 | 315 | 0.0 | 2.0 | 0.00 | 0.00 | 0.00 | 34 | 1003.7 |
| 20260504012604 | 65 | 315 | 0.0 | 2.0 | 0.00 | 0.00 | 0.00 | 33 | 1003.7 |
| 20260504012015 | 65 | 315 | 0.0 | 0.0 | 0.00 | 0.00 | 0.00 | 33 | 1003.8 |
| 20260504011556 | 65 | 315 | 0.0 | 4.0 | 0.00 | 0.00 | 0.00 | 32 | 1003.8 |